Location: Cran-Gévrier
(45.9039°N, 6.1012°E)
Time: 04:46:28
(UTC+00:00)

PCSat - Pass Details

Date: 09 December 2023
Orbit: 784 x 791 km, 67.0° (Epoch: 22 February)

Event Time Altitude Azimuth Distance (km) Brightness Sun altitude
Exits shadow 05:25:18 14° 333° (NNW) 2,066 11.3 -16.6°
Drops below altitude 10° 05:27:57 10° 3° (N) 2,361 11.9 -16.1°
Sets 05:31:36 0° 28° (NNE) 3,295 12.9 -15.5°
